Location: Unspecified
(52.4292°N, 19.3359°E)
Time: 23:28:09
(UTC+02:00)

A-11 Canister half - Pass Details

Date: 26 May 2024
Orbit: 1515 x 1685 km, 47.2° (Epoch: 19 June)

Event Time Altitude Azimuth Distance (km) Brightness Sun altitude
Rises 09:54:11 0° 282° (WNW) 4,667 11.1 45.5°
Reaches altitude 10° 10:00:38 10° 249° (WSW) 3,673 10.8 46.4°
Maximum altitude 10:02:36 11° 236° (WSW) 3,606 10.9 46.6°
Drops below altitude 10° 10:04:35 10° 223° (SW) 3,674 11.0 46.9°
Sets 10:11:05 0° 191° (S) 4,670 11.7 47.7°
